EW2561 Weather Reports


Display with metric or nautical units.
time (UTC)temp
F
wind
direction
speed
MPH
gust
MPH
rain 1hr
in
rain 24hr
in
rain mn
in
humidity
%
barometer
mb
20260503203432 60 272 1.0 3.0 0.00 0.06 0.06 87 1008.9
20260503202931 60 190 1.0 3.0 0.00 0.06 0.06 87 1008.9
20260503202430 60 241 1.0 3.0 0.00 0.06 0.06 87 1009.0
20260503201925 60 254 1.0 3.0 0.00 0.06 0.06 87 1009.0
20260503201422 60 229 1.0 4.0 0.00 0.06 0.06 87 1009.1
20260503200904 59 262 1.0 4.0 0.00 0.06 0.06 87 1009.1
20260503200402 59 208 1.0 3.0 0.00 0.06 0.06 87 1009.1
20260503195903 59 292 0.0 3.0 0.00 0.06 0.06 87 1009.1
20260503195333 59 217 1.0 3.0 0.00 0.06 0.06 87 1009.1
20260503194830 59 294 1.0 3.0 0.00 0.06 0.06 87 1009.1
20260503194303 59 290 0.0 3.0 0.00 0.06 0.06 87 1009.0
20260503193802 60 210 0.0 4.0 0.00 0.06 0.06 87 1009.0
20260503193232 60 275 1.0 4.0 0.00 0.06 0.06 87 1008.9
20260503192956 60 225 0.0 2.0 0.00 0.06 0.06 86 1008.8
20260503192231 60 283 0.0 4.0 0.00 0.06 0.06 86 1008.7
20260503191730 60 252 1.0 4.0 0.00 0.06 0.06 86 1008.7
20260503191453 60 265 1.0 4.0 0.00 0.06 0.06 86 1008.6
20260503190955 60 318 1.0 4.0 0.00 0.06 0.06 86 1008.6
20260503190236 60 252 1.0 3.0 0.00 0.06 0.06 86 1008.6
20260503185703 61 251 1.0 2.0 0.00 0.07 0.06 86 1008.5
20260503185409 61 205 1.0 3.0 0.00 0.07 0.06 86 1008.5
20260503184636 61 278 1.0 3.0 0.00 0.07 0.06 85 1008.4
20260503184131 61 229 1.0 4.0 0.00 0.08 0.06 85 1008.4
20260503183632 61 214 1.0 4.0 0.00 0.08 0.06 85 1008.4
20260503183138 61 267 1.0 4.0 0.00 0.08 0.06 85 1008.4
20260503182636 61 288 1.0 4.0 0.00 0.08 0.06 85 1008.4
20260503182132 61 291 1.0 6.0 0.00 0.08 0.06 85 1008.4
20260503181629 61 213 2.0 6.0 0.00 0.08 0.06 84 1008.4
20260503181130 62 266 2.0 5.0 0.00 0.09 0.06 84 1008.3
20260503180630 62 302 1.0 5.0 0.00 0.09 0.06 85 1008.3
20260503180103 62 281 1.0 5.0 0.00 0.10 0.06 85 1008.3
20260503175602 62 283 1.0 5.0 0.00 0.10 0.06 86 1008.3
20260503175325 62 193 1.0 4.0 0.00 0.11 0.06 85 1008.3
20260503174533 62 263 1.0 4.0 0.00 0.11 0.06 85 1008.2
20260503174031 62 4 1.0 4.0 0.00 0.12 0.06 85 1008.2
20260503173530 62 293 2.0 7.0 0.00 0.13 0.06 85 1008.3
20260503173030 62 338 2.0 7.0 0.00 0.20 0.06 85 1008.3
20260503172532 62 268 2.0 6.0 0.00 0.28 0.06 85 1008.2
20260503172030 62 4 2.0 5.0 0.00 0.28 0.06 84 1008.2
20260503171530 63 296 2.0 6.0 0.00 0.28 0.06 84 1008.2
20260503171003 63 318 2.0 6.0 0.00 0.28 0.06 84 1008.2
20260503170516 63 283 2.0 6.0 0.00 0.28 0.06 83 1008.2
20260503150703 60 260 2.0 8.0 0.01 0.39 0.06 93 1008.5
20260503150135 60 209 2.0 4.0 0.01 0.39 0.06 93 1008.5
20260503131121 59 264 2.0 6.0 0.01 0.35 0.02 88 1009.1
20260503130401 59 294 2.0 6.0 0.01 0.35 0.02 87 1009.1
20260503110503 63 240 2.0 9.0 0.00 0.35 0.01 70 1009.1
20260503100222 64 217 2.0 9.0 0.00 0.35 0.01 66 1008.7
20260503090256 63 153 1.0 3.0 0.00 0.35 0.01 75 1008.4
20260503080930 64 81 2.0 4.0 0.00 0.35 0.01 74 1008.2
20260503080431 64 225 2.0 9.0 0.00 0.35 0.01 71 1008.3
20260503072904 63 140 1.0 6.0 0.00 0.35 0.01 76 1008.1
20260503072402 63 253 0.0 5.0 0.00 0.35 0.01 79 1008.1
20260503071831 62 302 0.0 4.0 0.00 0.35 0.01 81 1008.2
20260503071331 62 230 0.0 2.0 0.00 0.35 0.01 84 1008.2
20260503070833 61 98 0.0 1.0 0.00 0.35 0.01 87 1008.2
20260503070325 60 185 0.0 2.0 0.00 0.35 0.01 91 1008.2
20260503060230 57 178 0.0 0.0 0.00 0.35 0.01 98 1008.2
20260503054731 56 178 0.0 0.0 0.00 0.35 0.01 98 1008.3
20260503054413 55 178 0.0 0.0 0.00 0.35 0.01 98 1008.3
20260503054404 56 178 0.0 0.0 0.00 0.35 0.01 98 1008.2
20260503053204 55 178 0.0 0.0 0.00 0.35 0.01 98 1008.3
20260503052632 55 178 0.0 0.0 0.00 0.35 0.01 98 1008.3
20260503052359 54 178 0.0 0.0 0.00 0.35 0.01 98 1008.3
20260503051604 54 178 0.0 0.0 0.00 0.35 0.01 98 1008.3
20260503051031 54 178 0.0 0.0 0.00 0.35 0.01 98 1008.4
20260503050806 53 178 0.0 0.0 0.00 0.35 0.01 98 1008.3
20260503050457 53 178 0.0 0.0 0.00 0.35 0.01 98 1008.4
20260503045503 53 178 0.0 0.0 0.00 0.35 0.01 98 1008.4
20260503044933 53 178 0.0 0.0 0.00 0.35 0.01 97 1008.4
20260503044433 53 178 0.0 0.0 0.00 0.35 0.01 97 1008.5
20260503044154 53 178 0.0 0.0 0.00 0.35 0.01 97 1008.5
20260503043917 53 178 0.0 0.0 0.00 0.35 0.01 97 1008.5
20260503042930 53 178 0.0 0.0 0.00 0.35 0.01 97 1008.4
20260503042431 53 178 0.0 0.0 0.00 0.35 0.01 97 1008.4
20260503041931 53 178 0.0 0.0 0.00 0.35 0.01 97 1008.4
20260503041430 53 178 0.0 0.0 0.00 0.35 0.01 97 1008.4
20260503040932 53 178 0.0 0.0 0.00 0.35 0.01 97 1008.4
20260503040430 53 178 0.0 0.0 0.00 0.35 0.01 97 1008.4
20260503035930 53 178 0.0 0.0 0.00 0.35 0.01 97 1008.4
20260503035435 53 178 0.0 0.0 0.00 0.35 0.01 97 1008.4
20260503034932 53 178 0.0 0.0 0.00 0.35 0.01 97 1008.4
20260503034410 54 178 0.0 0.0 0.00 0.35 0.01 97 1008.4
20260503033908 54 178 0.0 0.0 0.00 0.35 0.01 97 1008.3
20260503033337 54 178 0.0 0.0 0.00 0.35 0.01 97 1008.4
20260503032837 54 178 0.0 0.0 0.00 0.35 0.01 97 1008.3
20260503032309 54 178 0.0 0.0 0.00 0.35 0.01 97 1008.4
20260503032032 54 178 0.0 0.0 0.00 0.35 0.01 97 1008.3
20260503031235 54 178 0.0 0.0 0.00 0.35 0.01 97 1008.5
20260503030732 54 178 0.0 0.0 0.00 0.35 0.01 97 1008.4
20260503030220 55 178 0.0 0.0 0.00 0.35 0.01 97 1008.5
20260503025704 55 178 0.0 0.0 0.00 0.35 0.01 97 1008.5
20260503025202 55 178 0.0 0.0 0.00 0.35 0.01 97 1008.5
20260503024703 55 178 0.0 0.0 0.00 0.35 0.01 97 1008.5
20260503024404 55 178 0.0 0.0 0.00 0.35 0.01 97 1008.6
20260503023641 55 178 0.0 0.0 0.00 0.35 0.01 97 1008.6
20260503023139 55 178 0.0 0.0 0.00 0.35 0.01 97 1008.6
20260503022636 55 178 0.0 0.0 0.00 0.35 0.01 97 1008.7
20260503022132 56 178 0.0 0.0 0.00 0.35 0.01 97 1008.7
20260503021632 56 178 0.0 0.0 0.00 0.35 0.01 97 1008.8
20260503021130 56 178 0.0 0.0 0.00 0.35 0.01 97 1008.8
20260503020630 56 178 0.0 0.0 0.00 0.35 0.01 97 1008.8
20260503020021 56 178 0.0 0.0 0.00 0.35 0.01 97 1008.9
20260503015031 56 178 0.0 0.0 0.00 0.35 0.01 97 1008.9
20260503014530 56 178 0.0 0.0 0.00 0.35 0.01 97 1009.1
20260503014031 56 178 0.0 0.0 0.00 0.35 0.01 97 1009.1
20260503013753 56 178 0.0 0.0 0.00 0.35 0.01 97 1009.1
20260503013031 56 178 0.0 0.0 0.00 0.35 0.01 98 1009.2
20260503012532 56 178 0.0 1.0 0.00 0.35 0.01 98 1009.2
20260503012032 56 178 0.0 1.0 0.00 0.35 0.01 98 1009.3
20260503011532 56 178 0.0 0.0 0.00 0.35 0.01 97 1009.3
20260503011030 56 178 0.0 0.0 0.00 0.35 0.01 97 1009.3
20260503010537 56 178 0.0 0.0 0.00 0.35 0.01 97 1009.4
20260503010030 56 178 0.0 0.0 0.00 0.35 0.01 97 1009.4
20260503005528 56 178 0.0 0.0 0.00 0.35 0.01 97 1009.4
20260503005027 56 178 0.0 0.0 0.00 0.35 0.01 97 1009.5
20260503004524 56 178 0.0 0.0 0.00 0.35 0.01 97 1009.5
20260503004023 56 178 0.0 0.0 0.00 0.35 0.01 97 1009.5
20260503003521 56 178 0.0 0.0 0.00 0.35 0.01 97 1009.6
20260503003003 56 178 0.0 0.0 0.00 0.35 0.01 97 1009.6
20260503002503 56 178 0.0 0.0 0.00 0.35 0.01 97 1009.6
20260503001932 56 178 0.0 0.0 0.00 0.35 0.01 97 1009.7
20260503001423 56 178 0.0 0.0 0.00 0.35 0.01 97 1009.7
20260503001123 57 178 0.0 0.0 0.00 0.35 0.01 97 1009.8
20260503000401 57 178 0.0 0.0 0.00 0.35 0.01 97 1009.8
20260502235833 57 178 0.0 1.0 0.00 0.35 0.01 97 1009.9
20260502235555 57 178 0.0 1.0 0.00 0.35 0.01 97 1010.0
20260502234828 57 178 0.0 1.0 0.00 0.35 0.01 97 1010.0
20260502234327 57 178 0.0 1.0 0.00 0.35 0.01 97 1010.1
20260502233824 58 178 0.0 2.0 0.00 0.35 0.01 97 1010.2
20260502233319 57 179 0.0 2.0 0.00 0.35 0.01 97 1010.2
20260502232818 58 179 0.0 2.0 0.00 0.35 0.01 97 1010.2
20260502232305 58 188 0.0 2.0 0.00 0.35 0.01 97 1010.2
20260502231802 58 80 0.0 0.0 0.00 0.35 0.01 97 1010.3
20260502231302 58 80 0.0 0.0 0.01 0.35 0.01 96 1010.4
20260502230730 58 80 0.0 1.0 0.01 0.35 0.01 96 1010.4
20260502230231 58 80 0.0 2.0 0.01 0.35 0.01 97 1010.5
20260502225713 58 80 1.0 3.0 0.01 0.35 0.01 97 1010.5
20260502225205 58 18 1.0 3.0 0.01 0.35 0.01 97 1010.7
20260502224641 58 77 1.0 5.0 0.01 0.35 0.01 97 1010.5
20260502224353 58 354 1.0 5.0 0.01 0.35 0.01 97 1010.8
20260502224133 58 354 1.0 5.0 0.01 0.35 0.01 97 1010.8
20260502223631 58 354 1.0 5.0 0.01 0.35 0.01 97 1010.7
20260502223103 58 13 1.0 5.0 0.01 0.35 0.01 97 1010.9
20260502222603 58 253 1.0 4.0 0.01 0.35 0.01 97 1010.5
20260502222031 58 87 1.0 4.0 0.01 0.35 0.01 97 1010.6
20260502221530 57 355 0.0 3.0 0.01 0.35 0.01 97 1010.8
20260502221032 57 139 0.0 0.0 0.00 0.34 0.00 97 1010.4
20260502220532 58 139 0.0 0.0 0.00 0.34 0.00 97 1010.4
20260502220031 58 139 0.0 0.0 0.00 0.34 0.00 97 1010.4
20260502215530 58 139 0.0 0.0 0.00 0.34 0.34 97 1010.4
20260502215032 58 139 0.0 0.0 0.00 0.34 0.34 97 1010.4
20260502214530 58 139 0.0 0.0 0.00 0.34 0.34 97 1010.5
20260502214030 58 139 0.0 0.0 0.00 0.34 0.34 97 1010.5
20260502213533 58 139 0.0 0.0 0.00 0.34 0.34 97 1010.5
20260502213254 58 139 0.0 0.0 0.00 0.34 0.34 97 1010.6
20260502212525 58 139 0.0 0.0 0.00 0.34 0.34 97 1010.6
20260502212508 57 139 0.0 0.0 0.00 0.34 0.34 96 1010.6
20260502211503 57 139 0.0 0.0 0.00 0.34 0.34 96 1010.6
20260502210932 57 139 0.0 0.0 0.00 0.34 0.34 96 1010.6
20260502210433 57 139 0.0 0.0 0.00 0.34 0.34 96 1010.6
20260502205930 57 139 0.0 0.0 0.00 0.34 0.34 96 1010.6
20260502205659 57 139 0.0 0.0 0.00 0.34 0.34 96 1010.6
20260502204934 58 139 0.0 0.0 0.00 0.34 0.34 96 1010.6
20260502204432 58 139 0.0 0.0 0.00 0.34 0.34 96 1010.6
20260502203932 58 139 0.0 0.0 0.00 0.34 0.34 96 1010.6